Temp_Advection
nan nan nan nan nan nan nan nan nan nan nan nan nan nan nan nan nan nan nan nan nan nan nan nan nan nan nan nan nan nan nan nan nan nan nan nan nan nan nan nan nan nan nan nan
nan -0 -0 0 0 -0 -0 0 -0 -0 -0 0 0 -1 -0 -0 -1 -1 -0 -0 0 0 0 0 0 0 -0 -0 -0 -0 -0 -0 -0 -0 -0 -1 -1 -1 -1 -0 -0 -0 -0 nan
nan -0 -1 -0 -1 -1 -0 -0 0 0 0 -0 0 -0 -1 -1 -1 -0 0 0 0 0 0 0 0 0 0 0 -0 -0 -0 -0 -0 -0 -0 -0 -0 -0 -0 -0 -0 -0 -0 nan
nan -0 -0 -1 -0 0 -0 -0 0 -0 1 0 0 0 -0 -0 0 0 1 0 0 0 0 0 0 0 0 0 0 0 -0 -0 -0 -0 -0 -0 -0 -0 -0 -0 -0 -0 -0 nan
nan 0 -1 -1 -1 -0 -0 0 0 -0 0 1 1 1 1 0 1 1 1 1 0 0 0 0 0 0 0 0 0 0 0 -0 -0 -0 -0 -0 -0 -0 -0 -0 -0 -0 0 nan
nan 0 -0 -0 -0 -0 -0 0 0 -1 -1 0 -0 -0 -1 -0 1 1 1 1 1 0 1 0 0 0 0 0 0 0 0 -0 -0 -0 -0 -0 -0 -0 -0 -0 -0 -0 -0 nan
nan -0 -1 -1 -1 -0 -0 -0 0 -0 -1 -2 -0 -1 0 1 1 1 1 1 1 0 0 0 0 0 0 0 0 0 0 -0 0 0 -0 -0 -0 0 -0 -0 -0 0 -0 nan
nan -0 -1 -1 0 0 -0 -1 -0 -0 -0 -1 -1 0 1 1 1 1 1 1 1 0 0 0 0 0 0 0 0 0 0 -0 -0 0 0 -0 -0 -0 -0 -0 -1 -1 -1 nan
nan -1 -1 -0 -0 -0 -0 -0 -0 -0 -0 0 0 1 1 1 1 1 1 1 0 0 1 0 0 0 0 0 0 0 0 0 -0 0 0 -0 -0 -1 -1 -1 -1 -2 -1 nan
nan -0 -1 -1 -0 0 0 0 -0 -0 0 0 0 1 1 1 1 1 1 0 0 0 0 1 0 0 0 0 0 0 0 0 -0 -0 -0 -0 -0 -1 -1 -1 -1 -1 -1 nan
nan -1 -1 -0 0 0 0 0 0 0 0 1 1 1 1 1 1 0 0 0 0 1 1 1 1 0 0 0 0 0 0 0 0 -0 -0 -0 0 0 -1 -0 0 -0 -0 nan
nan -1 -0 -0 0 0 0 0 0 1 1 1 0 1 1 1 1 1 0 0 1 1 1 1 1 0 0 0 0 0 0 0 -0 -0 -0 -0 -0 0 -0 0 1 1 -0 nan
nan -0 0 -0 -0 0 -0 -0 0 0 1 1 1 1 1 1 1 1 1 0 1 1 1 1 0 0 0 0 0 0 0 0 -0 -0 -0 -0 -0 -1 -0 -0 0 1 1 nan
nan 1 0 -1 -0 0 -0 -0 -0 1 1 1 1 1 1 1 1 1 1 1 1 1 1 1 1 0 0 0 0 0 0 0 0 0 -0 0 -0 0 -0 -1 -0 0 1 nan
nan 1 1 0 -0 -0 -0 0 1 1 1 1 0 1 1 1 1 1 1 1 1 1 1 1 0 0 0 0 0 0 0 0 0 0 0 0 0 0 0 -0 -0 -0 -0 nan
nan 0 0 0 -0 0 0 0 0 1 0 0 1 1 1 1 1 2 1 1 1 1 1 1 1 0 0 0 0 0 0 -0 -0 -0 0 0 0 0 -0 -0 -0 -0 -0 nan
nan 0 -0 0 -0 -0 0 0 0 0 1 1 1 2 2 1 1 2 1 1 1 1 1 1 1 0 0 0 0 0 0 -0 -0 0 0 -0 0 -0 -0 -0 -0 -0 -0 nan
nan 0 -0 0 -0 -0 -0 -0 0 1 0 1 3 2 1 1 1 2 1 1 1 1 0 0 0 0 0 0 0 0 -0 -0 -0 -0 0 0 0 0 0 0 -0 -0 -0 nan
nan -0 -0 0 0 0 0 -0 -0 1 1 2 3 1 2 2 2 2 1 1 0 1 0 1 0 0 0 0 0 0 -0 -0 -0 -0 0 0 0 0 0 0 -0 0 -0 nan
nan 0 0 -0 -0 0 0 0 -0 1 2 3 2 1 2 2 2 1 1 0 1 1 0 0 0 0 0 0 0 0 0 -0 -0 0 0 0 0 0 0 0 -0 -0 -0 nan
nan -0 -0 0 1 0 0 0 -0 0 2 2 2 2 2 2 2 1 1 0 1 1 0 0 0 0 0 0 0 0 -0 0 0 0 0 0 0 0 0 0 0 -0 -0 nan
nan -0 0 0 0 0 1 0 0 1 2 2 2 2 2 2 1 1 0 0 0 0 0 0 0 0 0 0 0 0 0 0 0 0 0 0 0 0 0 0 -0 -0 -0 nan
nan 0 0 -0 -0 0 0 0 1 1 2 1 2 2 1 1 1 1 1 1 1 1 0 0 0 0 0 0 0 0 0 0 0 0 0 0 0 0 0 0 0 0 0 nan
nan 0 0 0 0 0 0 1 1 1 2 2 2 1 1 2 1 0 0 0 0 0 0 0 0 0 0 0 0 0 0 0 0 0 0 0 0 0 0 0 0 0 0 nan
nan 0 1 0 0 0 0 1 1 1 1 1 1 1 1 1 0 0 1 1 0 0 0 0 0 0 0 0 0 0 0 0 0 0 0 0 0 0 0 0 0 0 0 nan
nan 1 1 1 0 0 0 1 1 1 1 1 1 1 1 0 0 0 1 0 0 0 0 0 0 0 0 0 0 0 0 0 -0 0 0 0 0 0 0 0 0 0 0 nan
nan nan nan nan nan nan nan nan nan nan nan nan nan nan nan nan nan nan nan nan nan nan nan nan nan nan nan nan nan nan nan nan nan nan nan nan nan nan nan nan nan nan nan nan
Wind_Speed
2 2 2 2 5 8 4 5 5 6 7 8 10 15 25 31 28 25 21 17 12 8 5 3 3 4 8 11 11 11 13 14 15 17 19 21 22 24 26 26 27 29 33 30
4 2 3 7 9 10 12 10 9 7 11 7 13 23 26 31 30 25 22 17 13 8 5 5 5 5 9 9 10 12 14 15 17 19 21 22 24 26 26 27 30 34 32 30
4 4 5 7 11 10 9 7 7 10 11 13 12 22 27 29 26 25 24 20 16 11 9 7 6 6 10 7 8 11 14 16 19 21 22 23 25 26 27 30 33 33 31 32
2 3 2 7 6 8 8 2 4 4 10 15 18 17 23 24 25 26 24 21 16 12 9 8 8 8 8 5 7 11 13 17 21 23 24 25 26 26 30 32 32 31 34 36
3 2 7 10 9 4 6 3 2 8 10 18 21 15 8 14 20 22 22 17 13 10 9 9 8 9 6 6 8 11 15 19 22 24 24 25 25 28 31 31 31 33 34 35
3 3 6 5 5 16 3 2 4 12 15 19 14 3 5 17 19 19 17 15 14 12 10 10 9 8 8 8 10 14 16 20 22 23 23 23 25 28 28 30 31 34 34 35
3 5 7 8 15 6 2 5 14 23 24 24 6 7 3 13 18 17 16 15 13 10 10 11 10 10 10 11 13 15 18 21 22 22 21 23 25 25 29 30 32 34 36 37
3 2 11 11 5 6 6 16 22 22 24 25 16 10 10 16 19 17 17 15 14 12 11 10 10 11 12 13 15 16 19 22 21 21 21 23 24 27 27 30 32 35 38 40
8 7 7 6 5 10 13 24 23 20 18 15 15 13 15 19 19 17 16 15 13 11 11 11 11 13 14 15 15 18 21 21 20 20 21 22 25 26 28 28 30 34 36 40
4 6 17 20 11 11 18 18 19 17 14 15 12 12 17 17 19 19 19 17 15 14 14 13 13 14 16 16 17 19 21 20 19 19 20 22 22 24 27 27 29 31 35 39
4 7 9 12 13 19 16 16 18 17 18 18 16 13 15 19 22 22 21 20 18 16 15 15 16 16 17 17 18 20 20 19 18 18 20 20 21 25 27 25 23 26 28 31
5 10 9 9 10 6 5 10 18 21 22 20 16 13 16 18 23 26 26 22 20 18 17 17 17 17 17 17 19 18 18 17 17 18 19 19 22 24 26 26 24 22 21 24
3 6 8 9 11 12 12 15 17 20 24 22 17 14 16 20 27 29 26 23 20 18 17 16 16 16 16 17 17 17 17 16 16 18 18 20 22 25 30 29 26 26 23 23
11 19 12 15 12 11 11 13 17 22 24 21 17 17 19 23 28 31 29 23 19 18 17 17 16 15 15 16 16 16 15 15 16 17 17 20 22 24 26 30 32 32 30 28
30 31 29 25 23 22 21 21 21 28 26 24 21 21 23 26 31 33 28 23 19 17 17 17 15 14 14 14 15 15 14 13 15 15 17 20 22 23 25 28 30 31 33 33
27 26 24 22 20 17 17 17 20 27 29 28 26 26 23 24 28 29 28 24 21 18 17 15 13 13 13 13 13 13 12 13 15 15 17 19 21 23 25 27 28 30 32 34
31 31 27 29 25 20 15 13 18 24 29 32 31 28 27 28 27 27 26 22 19 17 15 13 12 13 12 12 12 12 11 13 15 15 17 19 20 22 24 26 27 28 30 30
38 34 33 32 33 31 29 30 32 29 27 33 35 32 30 30 30 29 26 23 18 16 13 12 12 11 11 11 11 11 12 15 15 16 16 18 19 21 22 24 25 27 29 30
20 22 22 25 27 27 26 26 28 30 31 34 38 35 33 28 26 25 25 21 17 15 12 11 11 11 11 10 10 11 14 15 15 15 16 17 18 19 22 23 25 27 28 30
16 15 16 19 20 24 24 25 27 29 32 34 38 35 31 28 26 25 24 19 14 12 12 10 10 10 9 10 10 12 15 15 15 15 16 16 17 19 21 22 24 26 28 29
21 22 24 25 25 26 29 30 30 29 29 34 36 35 30 25 24 25 24 21 16 13 12 11 9 8 9 10 10 13 15 14 14 15 16 16 17 19 20 22 24 26 28 30
22 20 22 23 22 25 24 22 22 24 30 35 34 29 26 25 26 25 20 15 15 14 12 10 8 8 10 11 11 13 14 13 14 15 15 16 17 19 20 22 25 26 28 29
20 22 24 20 19 18 17 17 19 23 30 30 28 27 26 24 26 26 23 19 16 14 11 9 8 9 11 12 12 13 13 13 14 15 16 17 17 19 21 22 25 26 28 30
18 18 17 17 15 14 15 17 21 26 26 24 23 21 22 25 25 21 18 15 14 13 11 10 9 10 12 13 13 13 12 13 14 15 17 17 17 19 21 22 25 26 28 29
18 18 17 16 13 13 15 19 22 24 23 21 21 21 21 21 20 18 18 14 12 11 10 9 10 11 12 12 12 12 12 13 14 16 17 18 20 21 22 23 25 27 28 29
18 17 15 14 13 13 15 20 22 23 24 23 22 23 23 22 21 17 16 13 11 11 11 11 11 12 12 11 11 11 12 12 14 16 18 19 21 22 23 24 26 27 28 30
16 15 15 15 15 15 17 20 21 23 23 22 24 24 22 21 19 15 12 11 11 11 12 12 11 11 10 10 10 11 11 13 15 18 19 20 21 22 24 25 27 28 29 30
Wind_Direction
111 9 350 263 275 285 238 197 185 237 212 240 181 167 162 157 160 163 167 170 176 175 191 224 260 290 310 315 325 338 347 349 351 348 344 341 339 340 341 341 341 339 335 337
315 303 299 280 262 248 260 259 248 242 258 226 160 148 151 164 165 171 179 182 180 186 211 239 261 296 322 322 334 337 346 346 343 340 340 340 341 340 341 342 338 335 334 334
263 344 359 308 251 236 239 220 216 243 241 147 144 158 166 172 184 191 192 189 192 204 223 242 266 304 322 313 326 325 336 334 335 337 337 339 337 339 341 338 335 334 336 334
229 22 309 242 285 283 240 272 213 111 145 159 153 160 175 187 192 195 192 190 196 208 220 248 271 296 311 289 295 309 322 325 330 332 335 335 336 338 337 337 335 336 334 333
177 186 292 296 273 251 185 226 199 132 123 133 138 142 157 194 206 205 201 202 208 219 240 248 260 290 301 275 286 302 318 324 327 330 332 332 336 336 336 335 335 335 336 336
129 172 239 245 286 0 36 256 174 148 143 147 149 117 246 211 207 200 204 208 213 225 238 249 263 288 295 287 294 308 322 326 326 328 330 333 334 334 336 335 337 338 338 341
147 214 274 240 274 334 103 241 159 168 166 165 177 204 268 203 200 205 211 215 220 229 240 250 266 284 295 298 302 316 322 323 326 328 331 333 334 337 338 340 339 341 342 344
133 154 256 233 271 201 203 164 170 174 179 187 203 213 218 204 204 210 214 214 222 230 233 248 267 282 292 300 309 317 321 324 327 329 331 333 337 339 341 343 343 343 344 342
182 207 238 208 246 274 233 183 181 190 192 198 196 202 198 198 207 213 216 221 222 229 230 243 263 276 289 302 308 318 322 324 327 329 332 337 342 344 345 348 346 346 344 338
104 239 245 247 264 241 191 193 193 199 215 216 220 216 206 210 209 206 209 211 218 221 228 243 252 269 286 298 307 317 319 323 325 329 335 340 344 345 350 351 347 346 338 335
254 274 250 250 278 210 209 214 212 228 236 227 216 220 216 215 214 211 210 212 225 230 236 241 253 269 283 295 305 314 318 322 324 332 337 341 343 350 353 352 346 336 333 332
225 223 227 253 214 210 260 244 240 240 220 213 227 220 213 227 221 211 212 216 221 229 241 246 255 270 283 296 305 312 319 320 326 334 337 339 340 344 351 351 350 342 338 331
226 268 249 263 263 279 291 261 244 238 236 225 220 217 225 226 216 216 216 219 227 238 241 249 258 272 285 298 305 315 319 320 329 333 335 340 342 346 344 347 350 355 347 338
259 268 260 258 261 278 293 292 268 246 233 223 226 226 228 218 214 214 217 223 231 236 243 249 261 274 290 298 307 315 315 320 326 331 335 338 343 344 342 345 347 350 353 352
259 262 271 278 284 289 281 277 252 228 222 220 228 233 221 219 216 215 216 223 232 237 242 252 262 276 291 297 306 312 313 320 326 332 335 340 342 340 341 344 347 346 349 352
264 271 278 280 286 287 291 287 240 232 229 228 235 230 232 221 214 215 220 226 230 237 246 251 263 278 286 296 305 307 311 322 328 329 334 341 342 341 342 345 344 347 349 351
255 259 263 270 274 272 266 279 262 254 244 231 238 227 215 210 215 219 218 222 227 238 242 251 262 272 282 298 302 300 318 330 325 326 335 342 341 342 344 343 343 344 346 350
260 268 269 268 271 268 266 271 273 267 254 248 233 221 217 218 222 221 219 218 224 231 236 248 262 268 286 299 293 307 331 326 323 325 333 338 339 339 343 343 344 344 343 347
272 273 279 279 277 274 273 274 269 267 259 243 225 224 225 225 228 226 220 218 224 226 237 250 256 269 286 292 294 321 325 319 318 323 329 333 334 339 342 343 343 344 345 346
279 278 285 285 277 270 269 264 272 265 256 237 221 220 217 219 223 221 217 224 229 234 239 248 253 273 286 287 302 314 314 313 318 320 325 328 331 337 340 341 342 342 346 346
293 291 290 285 280 268 266 271 273 259 246 226 221 220 219 220 220 217 214 216 225 234 240 245 257 276 280 290 303 307 308 311 316 318 322 323 326 331 335 339 340 341 344 345
295 294 285 280 289 290 283 271 260 247 229 214 213 217 215 215 213 213 219 225 227 233 238 247 266 276 281 290 294 300 304 310 312 318 322 320 322 327 332 336 336 339 342 343
281 276 273 285 298 299 289 266 249 232 219 214 214 213 215 220 214 210 215 221 225 231 233 248 260 271 280 285 293 299 303 306 312 318 323 321 322 325 329 330 332 335 339 341
278 284 281 289 292 289 270 248 224 210 211 212 210 216 219 211 208 212 218 219 222 225 234 248 262 274 283 288 292 295 298 306 314 320 321 321 323 324 325 325 328 331 335 337
282 283 282 284 283 267 247 230 214 205 202 201 205 211 214 213 220 218 219 223 225 234 242 259 270 279 283 284 290 295 303 312 318 320 320 323 325 324 324 325 327 328 331 335
284 283 280 273 267 255 243 224 215 208 205 206 208 206 205 206 210 211 211 220 228 234 245 262 271 275 279 283 292 300 310 318 319 320 323 324 323 323 324 327 326 327 331 332
268 258 249 247 245 244 236 226 221 218 218 218 213 206 207 211 215 218 221 228 235 244 259 268 275 276 279 288 299 306 314 317 320 322 324 324 324 323 325 325 326 329 331 331
Height
1534 1536 1535 1534 1535 1535 1536 1537 1548 1536 1535 1526 1525 1528 1531 1535 1540 1543 1545 1547 1547 1548 1549 1549 1551 1552 1551 1551 1549 1547 1544 1543 1541 1539 1536 1533 1529 1526 1522 1518 1514 1510 1504 1500
1549 1536 1535 1537 1533 1531 1529 1527 1527 1526 1524 1517 1518 1525 1531 1534 1537 1540 1541 1542 1543 1545 1547 1548 1549 1549 1549 1548 1546 1544 1542 1541 1540 1536 1533 1530 1526 1522 1517 1513 1509 1504 1499 1495
1549 1539 1539 1545 1526 1523 1519 1517 1517 1524 1513 1516 1522 1524 1526 1531 1534 1535 1537 1539 1540 1542 1544 1546 1546 1547 1547 1546 1544 1542 1539 1539 1537 1533 1530 1526 1522 1517 1513 1508 1504 1499 1494 1490
1558 1548 1566 1524 1515 1514 1514 1511 1510 1510 1510 1513 1517 1523 1527 1529 1530 1532 1534 1536 1538 1539 1541 1543 1544 1544 1545 1543 1541 1539 1536 1536 1533 1530 1526 1521 1516 1512 1508 1503 1499 1494 1489 1484
1555 1561 1539 1521 1511 1509 1510 1511 1509 1509 1513 1517 1521 1524 1528 1529 1530 1530 1532 1534 1536 1537 1538 1540 1541 1542 1541 1540 1538 1536 1534 1532 1530 1526 1521 1516 1512 1507 1503 1499 1494 1489 1484 1478
1561 1552 1548 1521 1510 1505 1504 1518 1509 1509 1515 1518 1523 1536 1528 1527 1528 1529 1531 1532 1533 1535 1536 1537 1538 1538 1538 1537 1535 1533 1531 1529 1526 1522 1518 1513 1508 1503 1499 1495 1489 1484 1478 1473
1544 1552 1532 1513 1508 1507 1522 1521 1508 1510 1513 1517 1521 1521 1521 1522 1525 1527 1528 1530 1531 1532 1533 1534 1534 1534 1534 1533 1532 1530 1528 1526 1522 1518 1514 1509 1504 1499 1494 1490 1484 1478 1472 1467
1538 1538 1530 1502 1507 1514 1506 1503 1506 1510 1512 1514 1516 1517 1519 1520 1522 1523 1525 1527 1528 1529 1530 1531 1531 1531 1530 1529 1528 1526 1524 1522 1518 1514 1510 1505 1500 1495 1490 1485 1479 1473 1467 1461
1518 1514 1499 1499 1499 1499 1497 1499 1502 1505 1507 1509 1511 1513 1515 1517 1518 1520 1522 1524 1525 1526 1528 1528 1528 1527 1526 1525 1524 1522 1520 1517 1514 1510 1506 1501 1495 1491 1487 1482 1476 1470 1464 1457
1508 1499 1497 1494 1495 1496 1496 1499 1500 1502 1503 1504 1507 1508 1510 1512 1514 1516 1518 1520 1522 1523 1524 1525 1524 1523 1523 1522 1521 1518 1516 1513 1510 1506 1503 1498 1493 1489 1484 1479 1474 1468 1462 1456
1499 1493 1493 1492 1491 1493 1495 1496 1497 1498 1498 1499 1502 1503 1505 1507 1509 1511 1513 1516 1518 1519 1520 1520 1520 1520 1520 1519 1518 1514 1512 1509 1506 1502 1499 1494 1490 1485 1482 1478 1474 1468 1463 1456
1498 1486 1486 1488 1489 1490 1491 1493 1493 1493 1494 1496 1498 1499 1501 1502 1504 1506 1508 1510 1513 1515 1516 1516 1516 1516 1516 1515 1513 1510 1508 1505 1502 1498 1495 1490 1486 1482 1480 1475 1471 1466 1461 1456
1486 1486 1486 1487 1487 1487 1488 1490 1489 1489 1489 1491 1493 1495 1495 1497 1500 1502 1505 1506 1508 1509 1511 1512 1512 1512 1512 1510 1509 1506 1503 1501 1497 1494 1490 1486 1482 1477 1473 1470 1466 1461 1456 1451
1482 1483 1481 1483 1483 1484 1484 1484 1485 1484 1485 1486 1487 1489 1490 1491 1495 1497 1499 1502 1503 1504 1506 1508 1508 1508 1507 1506 1504 1501 1499 1496 1493 1490 1487 1482 1478 1474 1470 1465 1458 1455 1451 1446
1475 1476 1474 1476 1477 1477 1478 1478 1478 1478 1480 1482 1482 1483 1484 1485 1487 1491 1494 1496 1498 1499 1501 1503 1504 1503 1502 1501 1500 1497 1495 1493 1490 1487 1483 1479 1475 1471 1466 1461 1456 1450 1444 1440
1469 1468 1469 1469 1470 1471 1471 1471 1471 1472 1474 1475 1475 1476 1477 1480 1483 1485 1488 1490 1492 1494 1497 1498 1499 1499 1498 1497 1495 1493 1492 1489 1486 1483 1479 1475 1471 1467 1463 1458 1453 1448 1442 1435
1462 1460 1462 1461 1464 1464 1464 1465 1466 1467 1467 1467 1468 1470 1472 1476 1479 1481 1483 1485 1487 1490 1492 1493 1494 1494 1493 1492 1491 1490 1488 1485 1482 1479 1475 1472 1468 1464 1460 1456 1451 1446 1440 1434
1454 1454 1454 1454 1455 1457 1457 1457 1458 1458 1459 1460 1461 1464 1467 1468 1470 1474 1478 1480 1482 1485 1487 1488 1489 1489 1488 1488 1487 1486 1483 1481 1479 1475 1472 1469 1465 1462 1458 1453 1448 1443 1437 1431
1445 1445 1445 1445 1445 1446 1446 1447 1447 1447 1449 1450 1453 1456 1458 1463 1467 1471 1474 1476 1478 1481 1483 1484 1484 1484 1484 1484 1482 1481 1479 1477 1475 1472 1468 1465 1462 1458 1454 1450 1445 1440 1434 1428
1437 1438 1438 1439 1439 1438 1438 1438 1439 1438 1439 1443 1447 1450 1453 1457 1462 1466 1470 1472 1475 1477 1478 1479 1479 1479 1479 1479 1478 1476 1475 1472 1470 1468 1464 1461 1458 1454 1451 1447 1442 1437 1431 1425
1432 1432 1432 1432 1431 1431 1430 1429 1429 1429 1431 1436 1439 1444 1449 1454 1458 1462 1465 1467 1469 1472 1473 1474 1475 1475 1475 1475 1473 1472 1471 1468 1466 1463 1460 1458 1455 1451 1447 1443 1438 1433 1428 1422
1426 1426 1426 1425 1424 1422 1420 1420 1420 1423 1426 1431 1436 1442 1447 1451 1454 1458 1462 1465 1465 1467 1469 1470 1470 1470 1471 1470 1470 1468 1467 1464 1462 1459 1456 1453 1450 1447 1442 1438 1434 1430 1424 1418
1420 1421 1420 1420 1419 1417 1415 1415 1416 1419 1423 1429 1434 1439 1443 1447 1450 1453 1456 1459 1461 1463 1465 1466 1467 1467 1467 1466 1465 1464 1462 1460 1457 1455 1452 1449 1446 1442 1438 1434 1430 1425 1420 1414
1417 1416 1416 1415 1415 1414 1414 1414 1416 1420 1425 1429 1433 1438 1441 1444 1448 1451 1454 1456 1458 1460 1461 1462 1463 1463 1463 1462 1461 1460 1458 1456 1453 1450 1447 1445 1441 1438 1434 1430 1426 1421 1416 1410
1413 1412 1412 1412 1412 1413 1413 1415 1417 1420 1424 1428 1432 1436 1439 1442 1447 1449 1451 1453 1454 1456 1457 1458 1459 1459 1459 1458 1457 1456 1454 1451 1449 1446 1443 1440 1437 1433 1430 1426 1421 1416 1411 1406
1409 1409 1410 1410 1411 1411 1412 1414 1416 1419 1422 1425 1429 1433 1436 1439 1443 1446 1448 1450 1451 1453 1454 1454 1455 1455 1455 1454 1453 1452 1450 1447 1445 1442 1438 1435 1432 1428 1425 1420 1416 1411 1406 1400
1405 1406 1406 1407 1407 1409 1410 1412 1415 1418 1421 1424 1427 1430 1433 1437 1440 1443 1445 1447 1448 1449 1450 1451 1451 1451 1451 1450 1449 1448 1446 1444 1441 1437 1434 1431 1428 1424 1420 1415 1411 1405 1400 1395